Location: Montbazon
(47.2835°N, 0.6999°E)
Time: 01:43:12
(UTC+00:00)

Cosmos 2228 Rocket - Pass Details

Date: 08 November 2025
Orbit: 614 x 645 km, 82.5° (Epoch: 13 December)

Event Time Altitude Azimuth Distance (km) Brightness Sun altitude
Exits shadow 05:03:29 33° 311° (NW) 1,044 3.8 -18.4°
Drops below altitude 10° 05:06:45 10° 354° (N) 1,998 5.5 -17.9°
Sets 05:09:09 0° 3° (N) 2,913 6.5 -17.5°
